Weather History for K06D - October, 2013

Change the Weather History Date:

Tuesday, October 29, 2013

  Actual Average (KRUG) Record (KRUG)
Temperature  
Mean Temperature 25 °F -  
Max Temperature 33 °F 47 °F 74 °F (1950)
Min Temperature 17 °F 26 °F 1 °F (1988)
Degree Days  
Heating Degree Days 40    
Moisture  
Dew Point 19 °F    
Average Humidity 78    
Maximum Humidity 100    
Minimum Humidity 52    
Precipitation  
Precipitation 0.00 in - - ()
Sea Level Pressure  
Sea Level Pressure 30.17 in    
Wind  
Wind Speed 6 mph (SSW)    
Max Wind Speed 15 mph    
Max Gust Speed 17 mph    
Visibility 10 miles    
Events      
Averages and records for this station are not official NWS values.
T = Trace of Precipitation, MM = Missing Value Source: NWS Daily Summary

Daily Weather History Graph

Daily Weather History Graph

Search for Another Location

Airport or City:

Trip Planner

Search our weather history database for the weather conditions in past years. The results will help you decide how hot, cold, wet, or windy it might be!

Date:

Astronomy

Oct. 29, 2013 Rise Set
Actual Time 8:21 AM CDT 6:22 PM CDT
Civil Twilight 7:48 AM CDT 6:55 PM CDT
Nautical Twilight 7:11 AM CDT 7:32 PM CDT
Astronomical Twilight 6:34 AM CDT 8:08 PM CDT
Moon 2:48 AM CDT (10/29) 3:59 PM CDT (10/29)
Length of Visible Light 11h 07m
Length of Day
10h 01m
Waning Crescent, 25% of the Moon is Illuminated
Oct 29
Waning Crescent
Nov 3
New
Nov 9
First Quarter
Nov 17
Full
Nov 25
Last Quarter

Hourly Weather History & Observations

Time (CDT) Temp. Windchill Dew Point Humidity Pressure Visibility Wind Dir Wind Speed Gust Speed Precip Events Conditions
12:15 AM 17.6 °F 12.3 °F 14.0 °F 86% 30.42 in 10.0 mi SSE 3.5 mph - N/A   Clear
12:55 AM 17.6 °F 10.7 °F 14.0 °F 86% 30.42 in 10.0 mi SSE 4.6 mph - N/A   Clear
1:15 AM 17.6 °F 10.7 °F 14.0 °F 86% 30.41 in 10.0 mi SSE 4.6 mph - N/A   Clear
1:35 AM 17.6 °F 10.7 °F 14.0 °F 86% 30.41 in 10.0 mi South 4.6 mph - N/A   Clear
1:55 AM 17.6 °F 9.3 °F 15.8 °F 93% 30.40 in 10.0 mi South 5.8 mph - N/A   Clear
2:15 AM 17.6 °F - 15.8 °F 93% 30.39 in 10.0 mi Calm Calm - N/A   Clear
2:35 AM 17.6 °F - 15.8 °F 93% 30.39 in 10.0 mi Calm Calm - N/A   Clear
2:55 AM 17.6 °F - 15.8 °F 93% 30.38 in 10.0 mi Calm Calm - N/A   Clear
3:15 AM 17.6 °F 10.7 °F 15.8 °F 93% 30.36 in 10.0 mi South 4.6 mph - N/A   Clear
8:35 AM 19.4 °F - 17.6 °F 93% 30.30 in 10.0 mi Calm Calm - N/A   Clear
8:55 AM 19.4 °F - 17.6 °F 93% 30.30 in 10.0 mi Calm Calm - N/A   Clear
9:15 AM 19.4 °F 12.8 °F 19.4 °F 100% 30.29 in 10.0 mi South 4.6 mph - N/A   Clear
9:35 AM 23.0 °F 14.7 °F 19.4 °F 86% 30.28 in 10.0 mi South 6.9 mph - N/A   Mostly Cloudy
9:55 AM 23.0 °F 13.9 °F 19.4 °F 86% 30.28 in 10.0 mi South 8.1 mph - N/A   Overcast
10:15 AM 23.0 °F 12.4 °F 19.4 °F 86% 30.26 in 10.0 mi SSW 10.4 mph - N/A   Overcast
10:35 AM 24.8 °F 14.6 °F 21.2 °F 86% 30.24 in 10.0 mi SSW 10.4 mph - N/A   Scattered Clouds
10:55 AM 26.6 °F 14.7 °F 19.4 °F 74% 30.23 in 10.0 mi SSW 15.0 mph - N/A   Partly Cloudy
11:15 AM 26.6 °F 15.2 °F 19.4 °F 74% 30.23 in 10.0 mi SSW 13.8 mph - N/A   Partly Cloudy
11:35 AM 26.6 °F 16.2 °F 19.4 °F 74% 30.22 in 10.0 mi SSW 11.5 mph - N/A   Clear
11:55 AM 28.4 °F 18.0 °F 21.2 °F 74% 30.21 in 10.0 mi SSW 12.7 mph - N/A   Clear
12:15 PM 28.4 °F 18.0 °F 21.2 °F 74% 30.19 in 10.0 mi SSW 12.7 mph - N/A   Clear
12:35 PM 28.4 °F 19.1 °F 19.4 °F 69% 30.19 in 10.0 mi SSW 10.4 mph - N/A   Mostly Cloudy
12:55 PM 30.2 °F 21.3 °F 19.4 °F 64% 30.18 in 10.0 mi SSW 10.4 mph - N/A   Scattered Clouds
1:15 PM 32.0 °F 24.8 °F 19.4 °F 60% 30.18 in 10.0 mi SW 8.1 mph - N/A   Clear
1:35 PM 32.0 °F 24.8 °F 19.4 °F 60% 30.17 in 10.0 mi SSW 8.1 mph - N/A   Clear
1:55 PM 32.0 °F 22.5 °F 19.4 °F 60% 30.15 in 10.0 mi SW 12.7 mph 16.1 mph N/A   Clear
2:15 PM 32.0 °F 22.5 °F 19.4 °F 60% 30.14 in 10.0 mi SW 12.7 mph 17.3 mph N/A   Clear
2:35 PM 32.0 °F 23.0 °F 19.4 °F 60% 30.13 in 10.0 mi SW 11.5 mph - N/A   Mostly Cloudy
2:55 PM 32.0 °F 22.1 °F 19.4 °F 60% 30.12 in 10.0 mi SW 13.8 mph - N/A   Scattered Clouds
3:15 PM 32.0 °F 23.6 °F 17.6 °F 55% 30.12 in 10.0 mi SW 10.4 mph - N/A   Clear
3:35 PM 33.8 °F 25.8 °F 19.4 °F 56% 30.11 in 10.0 mi SSW 10.4 mph 17.3 mph N/A   Clear
3:55 PM 33.8 °F 25.8 °F 17.6 °F 52% 30.11 in 10.0 mi SW 10.4 mph - N/A   Clear
4:15 PM 32.0 °F 22.5 °F 17.6 °F 55% 30.10 in 10.0 mi SW 12.7 mph - N/A   Clear
4:35 PM 32.0 °F 23.0 °F 19.4 °F 60% 30.09 in 10.0 mi SSW 11.5 mph - N/A   Clear
4:55 PM 32.0 °F 23.0 °F 19.4 °F 60% 30.09 in 10.0 mi SSW 11.5 mph - N/A   Clear
5:15 PM 32.0 °F 24.2 °F 19.4 °F 60% 30.08 in 10.0 mi SSW 9.2 mph - N/A   Clear
5:35 PM 30.2 °F 21.3 °F 19.4 °F 64% 30.07 in 10.0 mi SSW 10.4 mph - N/A   Clear
5:55 PM 28.4 °F 19.7 °F 19.4 °F 69% 30.07 in 10.0 mi SSW 9.2 mph - N/A   Clear
6:15 PM 28.4 °F 22.2 °F 21.2 °F 74% 30.08 in 10.0 mi SSW 5.8 mph - N/A   Clear
6:35 PM 26.6 °F 20.0 °F 19.4 °F 74% 30.08 in 10.0 mi SSW 5.8 mph - N/A   Clear
6:55 PM 26.6 °F 19.1 °F 19.4 °F 74% 30.08 in 10.0 mi SW 6.9 mph - N/A   Clear
7:15 PM 26.6 °F 20.0 °F 19.4 °F 74% 30.07 in 10.0 mi SW 5.8 mph - N/A   Clear
7:35 PM 26.6 °F 20.0 °F 21.2 °F 80% 30.07 in 10.0 mi SW 5.8 mph - N/A   Clear
7:55 PM 26.6 °F 19.1 °F 21.2 °F 80% 30.06 in 10.0 mi SSW 6.9 mph - N/A   Clear
8:15 PM 24.8 °F 20.5 °F 19.4 °F 80% 30.06 in 10.0 mi SW 3.5 mph - N/A   Clear
8:35 PM 24.8 °F 19.1 °F 21.2 °F 86% 30.06 in 10.0 mi SW 4.6 mph - N/A   Clear
8:55 PM 24.8 °F 19.1 °F 21.2 °F 86% 30.06 in 10.0 mi SW 4.6 mph - N/A   Clear
9:15 PM 24.8 °F 20.5 °F 21.2 °F 86% 30.06 in 10.0 mi SW 3.5 mph - N/A   Clear
9:35 PM 24.8 °F 19.1 °F 21.2 °F 86% 30.05 in 10.0 mi SSW 4.6 mph - N/A   Clear
9:55 PM 24.8 °F 17.9 °F 21.2 °F 86% 30.05 in 10.0 mi SSW 5.8 mph - N/A   Clear
10:15 PM 24.8 °F 16.9 °F 21.2 °F 86% 30.05 in 10.0 mi SSW 6.9 mph - N/A   Clear
10:35 PM 23.0 °F 17.0 °F 21.2 °F 93% 30.05 in 10.0 mi SSW 4.6 mph - N/A   Clear
10:55 PM 23.0 °F 17.0 °F 21.2 °F 93% 30.04 in 10.0 mi SW 4.6 mph - N/A   Clear
11:15 PM 23.0 °F 15.8 °F 21.2 °F 93% 30.04 in 10.0 mi SW 5.8 mph - N/A   Clear
11:35 PM 23.0 °F 17.0 °F 21.2 °F 93% 30.04 in 10.0 mi SW 4.6 mph - N/A   Clear
11:55 PM 23.0 °F 17.0 °F 23.0 °F 100% 30.03 in 10.0 mi SW 4.6 mph - N/A   Clear